Weather History for KSAW - April, 2014

Change the Weather History Date:

Friday, April 25, 2014

  Actual Average (KESC) Record (KESC)
Temperature  
Mean Temperature 37 °F -  
Max Temperature 42 °F 51 °F 66 °F (1985)
Min Temperature 32 °F 35 °F 24 °F (1967)
Degree Days  
Heating Degree Days 28    
Moisture  
Dew Point 33 °F    
Average Humidity 92    
Maximum Humidity 100    
Minimum Humidity 87    
Precipitation  
Precipitation 0.00 in - - ()
Sea Level Pressure  
Sea Level Pressure 29.73 in    
Wind  
Wind Speed 11 mph (SSE)    
Max Wind Speed 15 mph    
Max Gust Speed 22 mph    
Visibility 7 miles    
Events Rain , Snow    
Averages and records for this station are not official NWS values.
T = Trace of Precipitation, MM = Missing Value Source: NWS Daily Summary

Daily Weather History Graph

Daily Weather History Graph

Search for Another Location

Airport or City:

Trip Planner

Search our weather history database for the weather conditions in past years. The results will help you decide how hot, cold, wet, or windy it might be!

Date:

Astronomy

Apr. 25, 2014 Rise Set
Actual Time 6:45 AM EDT 8:50 PM EDT
Civil Twilight 6:12 AM EDT 9:23 PM EDT
Nautical Twilight 5:32 AM EDT 10:03 PM EDT
Astronomical Twilight 4:47 AM EDT 10:48 PM EDT
Moon 4:47 AM EDT (4/25) 4:59 PM EDT (4/25)
Length of Visible Light 15h 10m
Length of Day
14h 05m
Waning Crescent, 15% of the Moon is Illuminated
Apr 25
Waning Crescent
Apr 29
New
May 6
First Quarter
May 14
Full
May 21
Last Quarter

Hourly Weather History & Observations

Time (EDT) Temp. Windchill Dew Point Humidity Pressure Visibility Wind Dir Wind Speed Gust Speed Precip Events Conditions
12:16 AM 34.7 °F 25.5 °F 32.5 °F 92% 29.82 in 10.0 mi ESE 13.8 mph - N/A   Overcast
12:36 AM 34.7 °F 25.1 °F 32.4 °F 91% 29.81 in 10.0 mi ESE 15.0 mph 21.9 mph N/A   Overcast
12:57 AM 34.7 °F 25.1 °F 32.2 °F 91% 29.79 in 10.0 mi ESE 15.0 mph 19.6 mph N/A   Overcast
1:16 AM 34.9 °F 25.3 °F 32.2 °F 90% 29.79 in 10.0 mi ESE 15.0 mph 19.6 mph N/A   Overcast
1:36 AM 34.7 °F 25.9 °F 32.0 °F 90% 29.77 in 10.0 mi ESE 12.7 mph 18.4 mph N/A   Overcast
1:57 AM 34.9 °F 25.7 °F 32.0 °F 89% 29.77 in 10.0 mi ESE 13.8 mph - N/A   Overcast
2:16 AM 34.9 °F 26.2 °F 32.0 °F 89% 29.76 in 10.0 mi ESE 12.7 mph 18.4 mph N/A   Overcast
2:36 AM 34.9 °F 26.2 °F 32.0 °F 89% 29.75 in 10.0 mi ESE 12.7 mph 21.9 mph N/A   Overcast
2:56 AM 34.7 °F 25.9 °F 32.0 °F 90% 29.74 in 10.0 mi ESE 12.7 mph 18.4 mph N/A   Overcast
3:16 AM 34.7 °F 26.4 °F 32.0 °F 90% 29.74 in 10.0 mi SE 11.5 mph - N/A Snow Light Snow
3:37 AM 34.0 °F 26.0 °F 32.0 °F 92% 29.74 in 4.0 mi SE 10.4 mph 19.6 mph N/A Snow Light Snow
3:56 AM 33.8 °F 26.4 °F 32.0 °F 93% 29.74 in 5.0 mi SE 9.2 mph - N/A Snow Light Snow
4:16 AM 33.8 °F 26.4 °F 32.0 °F 93% 29.74 in 7.0 mi SE 9.2 mph - N/A Snow Light Snow
4:36 AM 33.3 °F 25.7 °F 32.0 °F 95% 29.73 in 3.0 mi SE 9.2 mph - N/A Snow Light Snow
4:56 AM 32.9 °F 25.3 °F 32.0 °F 96% 29.73 in 1.8 mi SE 9.2 mph - N/A Snow Light Snow
5:17 AM 32.7 °F 25.7 °F 32.0 °F 97% 29.73 in 2.0 mi SSE 8.1 mph - N/A Snow Light Snow
5:36 AM 32.5 °F 24.8 °F 31.8 °F 97% 29.72 in 3.0 mi SE 9.2 mph - N/A Snow Light Snow
5:56 AM 32.5 °F 24.8 °F 31.8 °F 97% 29.72 in 4.0 mi SE 9.2 mph - N/A   Overcast
6:50 AM 32.0 °F 24.8 °F 32.0 °F 100% 29.71 in 4.0 mi SSE 8.1 mph - N/A   Overcast
7:50 AM 32.0 °F 24.2 °F 32.0 °F 100% 29.72 in 2.5 mi SSE 9.2 mph - N/A   Overcast
8:50 AM 32.0 °F 24.8 °F 32.0 °F 100% 29.71 in 3.0 mi SSE 8.1 mph - N/A   Overcast
9:50 AM 32.0 °F 24.2 °F 32.0 °F 100% 29.70 in 2.0 mi South 9.2 mph - N/A   Overcast
10:45 AM 33.8 °F 25.3 °F 32.0 °F 93% 29.69 in 1.0 mi South 11.5 mph - N/A   Overcast
11:50 AM 33.8 °F 24.8 °F 33.8 °F 100% 29.69 in 1.0 mi South 12.7 mph - N/A   Overcast
12:45 PM 37.4 °F 30.3 °F 35.6 °F 93% 29.67 in 4.0 mi South 10.4 mph - N/A   Overcast
1:45 PM 39.2 °F 33.0 °F 35.6 °F 87% 29.67 in 10.0 mi SSW 9.2 mph - N/A   Overcast
2:45 PM 41.0 °F 35.2 °F 37.4 °F 87% 29.65 in 10.0 mi South 9.2 mph - N/A   Overcast
3:08 PM 42.8 °F 38.6 °F 39.2 °F 87% 29.65 in 10.0 mi South 6.9 mph - N/A   Overcast
3:45 PM 42.8 °F - 39.2 °F 87% 29.65 in 5.0 mi Calm Calm - N/A Rain Rain
4:06 PM 41.0 °F - 39.2 °F 93% 29.65 in 1.2 mi Calm Calm - N/A Rain Heavy Rain
4:45 PM 39.2 °F 33.6 °F 37.4 °F 93% 29.67 in 10.0 mi NW 8.1 mph - N/A Rain Light Rain
6:45 PM 39.2 °F 35.0 °F 35.6 °F 87% 29.71 in 10.0 mi West 5.8 mph - N/A   Overcast
7:45 PM 35.6 °F 28.6 °F 33.8 °F 93% 29.73 in 10.0 mi NE 9.2 mph - N/A   Overcast
8:46 PM 33.8 °F 30.8 °F 33.8 °F 100% 29.75 in 10.0 mi NNE 3.5 mph - N/A Rain Light Rain
9:50 PM 35.6 °F 28.0 °F 32.0 °F 87% 29.77 in 10.0 mi West 10.4 mph - N/A   Overcast
10:17 PM 34.7 °F 28.1 °F 31.6 °F 89% 29.78 in 10.0 mi WNW 8.1 mph - N/A   Overcast
10:36 PM 34.3 °F 28.4 °F 31.6 °F 90% 29.79 in 10.0 mi WNW 6.9 mph - N/A   Overcast
10:57 PM 34.0 °F 27.2 °F 31.6 °F 91% 29.79 in 10.0 mi NW 8.1 mph - N/A   Overcast
11:16 PM 33.8 °F 27.0 °F 31.8 °F 92% 29.79 in 10.0 mi NW 8.1 mph - N/A   Overcast
11:36 PM 33.8 °F 27.7 °F 31.6 °F 92% 29.79 in 10.0 mi NW 6.9 mph - N/A   Overcast
11:57 PM 33.8 °F 28.6 °F 30.9 °F 89% 29.79 in 10.0 mi NW 5.8 mph - N/A   Overcast